Showing default

QIANFAN-193, 69411

Orbit data source: Space-Track

QIANFAN-193, 69411 is a Chinese payload satellite in LEO that was launched on Fri, 05 Jun 2026 UTC via a CHANG ZHENG 8 launch vehicle from the Wenchang Satellite Launch Center (WSC). Payload-class satellites include a variety of spacecraft equipped with specific instruments for various scientific and technological missions. These include communications satellites like Starlink; space stations such as the ISS; scientific satellites like the Hubble; Earth observation satellites from companies like Planet Labs, Umbra, and HawkEye 360; GPS; miniature CubeSats for education and research; and military/defense satellites.

Loading next visibility...
Identifier
69411, 2026-125L
Orbit
LEO
Country
Flag of CNCN / PRC
Related business
Manufacturer
SECM?
Mission
Operational spacecraft
Bus & Motor
QIANFAN, Unknown motor
Mass
267 kg wet, ~267 kg dry
Launch date (UTC)
2026-06-05 (2 weeks ago)
Launch vehicle
CHANG ZHENG 8
Launch site
Wenchang Satellite Launch Center (WSC)
Object type
Payload
Rocket body
Debris
Shape & HBR
Unknown
Radar Cross Section
Large (>1 m²)

Expand to show TLE details & history
Last TLE update: 15 hours ago

TLE from 15 hours ago
0 QIANFAN-193
1 69411U 26125L   26171.20259476 -.01725353  00000-0 -94876+0 0  9990
2 69411  88.9948 280.1006 0016730 173.7424 186.3976 14.15759213  2135
Epoch: 2026-06-20T04:51Z
TLE epoch observation values (Epoch: 2026-06-20T04:51:44.187Z)
Latitude
Longitude
-61.25411°
Altitude
854.781 km
Speed
7.419 km/s
True Right ascension
18h 40m 24s
True Declination
0° 00' 00"
Sunlit
Object was in full shadow at epoch
Visualization orbit readout
Latitude
Unknown
Longitude
Unknown
Altitude
Unknown
Speed
Unknown
Apparent Right ascension
Unknown
Apparent Declination
Unknown
Sunlit
N/A
Visualization observer readout
Local Sidereal Time
07:15:02
Azimuth
Unknown
Elevation
Unknown
Doppler factor
Unknown
Orbital elements
Apogee altitude
848.758 km
Perigee altitude
824.618 km
Semi-major axis
7,214.825 km
Eccentricity
0.00167
Inclination
88.9948°
RAAN
280.1006°
Arg. of periapsis
173.7424°
True anomaly
186.37628°
Mean anomaly
186.3976°
Eccentric anomaly
186.38694°
Mean motion
3.54164 °/min
Orbital period
101.65 mins
BSTAR
-0.94876
Loading maneuver chart data...
Computing Atmospheric mass density...
Loading historical data...
Loading historical data...
Loading historical data...
Loading historical data...
Loading historical data...
Loading historical data...
Loading historical data...

Documentation

Showing up to 5 results
|